Portada
METAR-TAF:

METAR-TAF

Aeropuertos :

Aeropuerto de Eastmain River

Eastmain, Quebec, Canadá

latitud: 52-14N, longitud: 078-31W, altitud: 7 m

Observación

El informe se hizo hace 3 horas y 54 minutos, a las 20:00 UTC
Viento 5 kt del oeste-noroeste
Temperatura -14°C
Humedad 78%
Presión 1016 hPa
Visibilidad: 24.1 km
Escasas nubes a una altura de 1200 ft
Escasas nubes a una altura de 10000 ft

METAR: CZEM 092000Z 30005KT 15SM FEW012 FEW100 M14/M17 A3001 RMK CF1AC1 AC TR LAST STFD OBS/NEXT 101400 UTC PRESRR SLP166

Hora: 18:54 (23:54 UTC)


TAF: falta

Observaciones y pronósticos meteorológicos de más de 4000 aeropuertos (mensajes METAR y TAF).

Los puntos amarillos y rojos representan las estaciones disponibles.

Ponga el ratón en el punto deseado para ver el nombre de la estación.

Haga clic para ver las observaciones y los pronósticos meteorológicos.

Para cambiar el mapa : haga clic en los botones verdes con una cruz de color negro para hacer un zoom, en el botón verde con un guión para alejar o en las flechas verdes para mapas adyacentes.


METAR-TAF: